When you browse on this site, cookies collect data to enhance your experience and personalize the content and advertising you see.
Visit our Privacy Policy to learn more. By continuing to use the site, you agree to this use of cookies and data.
  • In Portugal
  • List of Countries
  • For 7 days
  • Water Temperature
  • Weather Map
  • Weather Widgets
  • user-avatar
    Login

    Hourly Weather Klinina

    Today, 29 January, Wednesday

    Time Temperature Precipitation Wind Pressure Humidity
    00:00 -2°C° 0 mm 2 mps 687 mmHg 91%
    01:00 -2°C° 0 mm 3 mps 686 mmHg 91%
    02:00 -2°C° 0.1 mm 3 mps 686 mmHg 91%
    03:00 -2°C° 0.1 mm 3 mps 686 mmHg 90%
    04:00 -4°C° 0.1 mm 3 mps 686 mmHg 90%
    05:00 -4°C° 0 mm 3 mps 687 mmHg 89%
    06:00 -5°C° 0 mm 3 mps 687 mmHg 88%
    07:00 -4°C° 0 mm 2 mps 688 mmHg 88%
    08:00 -5°C° 0 mm 3 mps 688 mmHg 82%
    09:00 -4°C° 0 mm 4 mps 689 mmHg 76%
    10:00 -4°C° 0 mm 5 mps 689 mmHg 69%
    11:00 -2°C° 0 mm 5 mps 689 mmHg 68%
    12:00 -2°C° 0 mm 5 mps 689 mmHg 67%
    13:00 -2°C° 0 mm 6 mps 690 mmHg 63%
    14:00 -2°C° 0 mm 5 mps 689 mmHg 68%
    15:00 -3°C° 0 mm 4 mps 689 mmHg 73%
    16:00 -2°C° 0 mm 3 mps 689 mmHg 78%
    17:00 -4°C° 0 mm 3 mps 690 mmHg 80%
    18:00 -4°C° 0 mm 3 mps 690 mmHg 82%
    19:00 -4°C° 0 mm 3 mps 691 mmHg 84%
    20:00 -4°C° 0.1 mm 3 mps 691 mmHg 87%
    21:00 -4°C° 0.1 mm 3 mps 691 mmHg 89%
    22:00 -4°C° 0.1 mm 3 mps 691 mmHg 91%
    23:00 -4°C° 0 mm 3 mps 692 mmHg 91%

    Tomorrow, 30 January, Thursday

    Time Temperature Precipitation Wind Pressure Humidity
    00:00 -3°C° 0 mm 2 mps 692 mmHg 91%
    01:00 -4°C° 0 mm 2 mps 693 mmHg 91%
    02:00 -4°C° 0.1 mm 2 mps 693 mmHg 92%
    03:00 -4°C° 0.1 mm 2 mps 693 mmHg 92%
    04:00 -4°C° 0.1 mm 2 mps 693 mmHg 92%
    05:00 -5°C° 0.1 mm 3 mps 694 mmHg 91%
    06:00 -5°C° 0.1 mm 3 mps 694 mmHg 91%
    07:00 -5°C° 0.1 mm 3 mps 695 mmHg 91%
    08:00 -4°C° 0 mm 3 mps 695 mmHg 86%
    09:00 -2°C° 0 mm 3 mps 695 mmHg 82%
    10:00 -1°C° 0 mm 3 mps 696 mmHg 77%
    11:00 -1°C° 0 mm 3 mps 696 mmHg 74%
    12:00 0°C° 0 mm 3 mps 696 mmHg 72%
    13:00 0°C° 0 mm 3 mps 695 mmHg 69%
    14:00 0°C° 0 mm 3 mps 695 mmHg 73%
    15:00 -1°C° 0 mm 2 mps 695 mmHg 77%
    16:00 -1°C° 0 mm 2 mps 695 mmHg 81%
    17:00 -2°C° 0 mm 2 mps 694 mmHg 83%
    18:00 -2°C° 0 mm 2 mps 694 mmHg 85%
    19:00 -2°C° 0 mm 2 mps 694 mmHg 87%
    20:00 -2°C° 0 mm 2 mps 694 mmHg 88%
    21:00 -3°C° 0 mm 2 mps 693 mmHg 89%
    22:00 -3°C° 0 mm 2 mps 693 mmHg 89%
    23:00 -3°C° 0 mm 2 mps 693 mmHg 89%

    Day after tomorrow, 31 January, Friday

    Time Temperature Precipitation Wind Pressure Humidity
    00:00 -3°C° 0 mm 2 mps 693 mmHg 89%
    01:00 -3°C° 0 mm 2 mps 692 mmHg 88%
    02:00 -2°C° 0 mm 2 mps 692 mmHg 86%
    03:00 -2°C° 0 mm 3 mps 691 mmHg 84%
    04:00 -2°C° 0 mm 3 mps 691 mmHg 82%
    05:00 -1°C° 0.3 mm 3 mps 690 mmHg 84%
    06:00 -1°C° 0.3 mm 4 mps 690 mmHg 86%
    07:00 0°C° 0.3 mm 4 mps 690 mmHg 88%
    08:00 0°C° 0.5 mm 4 mps 690 mmHg 89%
    09:00 +1°C° 0.5 mm 4 mps 690 mmHg 90%
    10:00 +3°C° 0.5 mm 4 mps 689 mmHg 91%
    11:00 +3°C° 0.5 mm 4 mps 690 mmHg 91%
    12:00 +3°C° 0.5 mm 5 mps 690 mmHg 91%
    13:00 +3°C° 0.5 mm 5 mps 690 mmHg 91%
    14:00 +3°C° 0.2 mm 5 mps 691 mmHg 90%
    15:00 +3°C° 0.2 mm 5 mps 691 mmHg 90%
    16:00 +3°C° 0.2 mm 4 mps 691 mmHg 90%
    17:00 +3°C° 0.1 mm 4 mps 692 mmHg 90%
    18:00 +3°C° 0.1 mm 4 mps 693 mmHg 90%
    19:00 +2°C° 0.1 mm 3 mps 693 mmHg 90%
    20:00 +2°C° 0 mm 3 mps 694 mmHg 90%
    21:00 +2°C° 0 mm 3 mps 694 mmHg 90%
    22:00 +3°C° 0 mm 2 mps 694 mmHg 90%
    23:00 +3°C° 0 mm 2 mps 694 mmHg 90%

    1 February, Saturday

    Time Temperature Precipitation Wind Pressure Humidity
    00:00 +2°C° 0 mm 2 mps 694 mmHg 90%
    01:00 +2°C° 0 mm 2 mps 694 mmHg 91%
    02:00 +2°C° 0 mm 2 mps 694 mmHg 91%
    03:00 +2°C° 0 mm 2 mps 694 mmHg 91%
    04:00 +2°C° 0 mm 2 mps 694 mmHg 91%
    05:00 +2°C° 0 mm 2 mps 694 mmHg 90%
    06:00 +2°C° 0 mm 2 mps 694 mmHg 90%
    07:00 +2°C° 0 mm 2 mps 694 mmHg 89%
    08:00 +3°C° 0 mm 2 mps 694 mmHg 87%
    09:00 +4°C° 0 mm 2 mps 694 mmHg 86%
    10:00 +5°C° 0 mm 2 mps 695 mmHg 84%
    11:00 +4°C° 0 mm 3 mps 694 mmHg 83%
    12:00 +5°C° 0 mm 3 mps 694 mmHg 82%
    13:00 +7°C° 0 mm 3 mps 694 mmHg 81%
    14:00 +5°C° 0 mm 3 mps 694 mmHg 84%
    15:00 +4°C° 0 mm 3 mps 693 mmHg 87%
    16:00 +4°C° 0 mm 2 mps 693 mmHg 89%
    17:00 +3°C° 0 mm 3 mps 692 mmHg 89%
    18:00 +3°C° 0 mm 3 mps 692 mmHg 89%
    19:00 +3°C° 0 mm 3 mps 692 mmHg 88%
    20:00 +3°C° 0.2 mm 3 mps 691 mmHg 89%
    21:00 +3°C° 0.2 mm 3 mps 691 mmHg 89%
    22:00 +3°C° 0.2 mm 4 mps 690 mmHg 89%
    23:00 +3°C° 0.4 mm 4 mps 690 mmHg 89%

    2 February, Sunday

    Time Temperature Precipitation Wind Pressure Humidity
    00:00 +4°C° 0.4 mm 4 mps 689 mmHg 90%
    01:00 +4°C° 0.4 mm 4 mps 689 mmHg 90%
    02:00 +2°C° 0.2 mm 5 mps 689 mmHg 88%
    03:00 +2°C° 0.2 mm 6 mps 689 mmHg 87%
    04:00 0°C° 0.2 mm 8 mps 689 mmHg 86%
    05:00 0°C° 0.3 mm 7 mps 690 mmHg 86%
    06:00 -1°C° 0.3 mm 7 mps 690 mmHg 86%
    07:00 -2°C° 0.3 mm 6 mps 691 mmHg 86%
    08:00 -2°C° 0.1 mm 6 mps 692 mmHg 85%
    09:00 -2°C° 0.1 mm 6 mps 692 mmHg 84%
    10:00 -2°C° 0.1 mm 6 mps 693 mmHg 83%
    11:00 -1°C° 0.1 mm 6 mps 693 mmHg 82%
    12:00 -1°C° 0.1 mm 6 mps 694 mmHg 80%
    13:00 -1°C° 0.1 mm 6 mps 694 mmHg 79%
    14:00 0°C° 0 mm 5 mps 694 mmHg 80%
    15:00 -1°C° 0 mm 5 mps 694 mmHg 82%
    16:00 -1°C° 0 mm 5 mps 694 mmHg 83%
    17:00 -1°C° 0 mm 4 mps 694 mmHg 85%
    18:00 -1°C° 0 mm 4 mps 694 mmHg 86%
    19:00 -1°C° 0 mm 3 mps 694 mmHg 87%
    20:00 -1°C° 0 mm 3 mps 694 mmHg 87%
    21:00 -1°C° 0 mm 3 mps 694 mmHg 87%
    22:00 -1°C° 0 mm 2 mps 694 mmHg 86%
    23:00 -1°C° 0 mm 2 mps 694 mmHg 87%

    3 February, Monday

    Time Temperature Precipitation Wind Pressure Humidity
    00:00 -1°C° 0 mm 2 mps 693 mmHg 89%
    01:00 -1°C° 0 mm 2 mps 693 mmHg 90%
    02:00 -1°C° 0.3 mm 2 mps 693 mmHg 92%
    03:00 +1°C° 0.3 mm 2 mps 693 mmHg 93%
    04:00 +1°C° 0.3 mm 2 mps 692 mmHg 95%
    05:00 +2°C° 0.2 mm 2 mps 693 mmHg 95%
    06:00 +2°C° 0.2 mm 2 mps 693 mmHg 96%
    07:00 +2°C° 0.2 mm 2 mps 693 mmHg 96%
    08:00 +1°C° 0.3 mm 3 mps 694 mmHg 96%
    09:00 +1°C° 0.3 mm 3 mps 694 mmHg 95%
    10:00 +1°C° 0.3 mm 3 mps 694 mmHg 94%
    11:00 +1°C° 0.6 mm 3 mps 695 mmHg 95%
    12:00 +2°C° 0.6 mm 2 mps 695 mmHg 96%
    13:00 +2°C° 0.6 mm 2 mps 695 mmHg 96%
    14:00 +2°C° 0.3 mm 2 mps 695 mmHg 96%
    15:00 +1°C° 0.3 mm 3 mps 695 mmHg 96%
    16:00 +1°C° 0.3 mm 3 mps 695 mmHg 96%
    17:00 +2°C° 0.1 mm 2 mps 696 mmHg 95%
    18:00 +2°C° 0.1 mm 2 mps 696 mmHg 95%
    19:00 +1°C° 0.1 mm 2 mps 696 mmHg 95%
    20:00 +1°C° 0 mm 2 mps 696 mmHg 94%
    21:00 +1°C° 0 mm 2 mps 696 mmHg 94%
    22:00 +1°C° 0 mm 2 mps 695 mmHg 93%
    23:00 +1°C° 0 mm 2 mps 695 mmHg 92%
    Show more